Starlink 3937

operational
NORAD ID: 52542 Int'l Des: 2022-051 Owner: SPXS Country: US Constellation: starlink
LEOCIRCULAR

Starlink 3937について

説明を読み込み中...

リアルタイム位置

3D地球を読み込み中...

次回通過

高度履歴

Altitude vs Time

uPlot chart will show altitude changes over time

軌道要素

1 52542U 22051K 25353.39767958 -.00000400 00000-0 -70735-5 0 9993
2 52542 53.2171 129.5634 0001238 92.7304 267.3830 15.08841256199321
Epoch: Dec 19, 2025 • Age: 22 hours

現在のステータス

高度 539.7 km
速度 7.59 km/s
衛星直下点 11.78°N, 72.83°W
打ち上げ日 May 13, 2022
運用期間 3.6 years
タイプ internet

技術仕様

分類 Payload
質量 297.00 kg
乾燥質量 275.00 kg
総質量 297.00 kg
長さ 0.20 m
直径 2.80 m
スパン 9.00 m
形状 Box + pan
製造者 SPXS
バスタイプ Starlink
フェーズステータス In Orbit
所有者/国 SPXS/US

大規模コンステレーション

Loading constellations...